Theta_e
309 308 307 306 306 306 304 297 288 303 301 287 284 285 291 296 293 294 292 293 291 288 288 286 287 285 288 291 290 286 287 280 276 279 285 286 285 281 281 271 271 276 276 275
308 308 306 306 306 307 301 294 294 302 297 281 283 292 294 295 292 291 292 292 293 292 288 285 287 286 290 290 289 287 287 278 271 278 281 283 280 282 275 273 278 277 271 275
308 307 305 305 306 307 302 293 286 291 292 292 290 290 289 290 294 293 293 292 293 289 288 289 285 285 289 290 291 296 292 282 277 274 276 277 272 278 273 273 271 274 276 278
307 306 305 306 307 307 300 290 285 291 285 286 291 291 291 289 288 293 293 290 291 289 285 285 283 286 286 288 291 288 286 277 276 279 284 280 279 280 278 273 276 275 277 279
306 305 305 306 306 306 299 287 287 290 288 292 291 290 289 288 290 291 290 289 291 290 286 287 283 285 284 284 285 285 285 277 281 278 282 283 281 281 280 280 279 278 279 278
306 305 305 305 305 305 295 296 297 293 290 291 288 287 289 290 292 293 293 291 289 288 290 291 289 288 287 287 285 284 282 279 276 274 280 279 274 280 281 281 282 281 277 280
305 304 304 305 305 303 299 297 297 291 285 290 289 291 292 291 292 290 291 291 289 291 295 293 291 289 288 288 288 288 281 280 276 272 277 266 280 286 286 284 284 284 283 284
304 303 303 305 305 305 302 301 296 290 285 291 291 292 292 292 291 290 291 292 293 295 290 283 279 278 282 284 288 287 286 280 272 270 273 278 282 284 284 282 281 285 284 285
303 303 304 305 305 305 301 300 301 295 290 288 293 292 291 286 285 287 291 295 295 291 283 280 272 272 279 278 283 289 286 284 277 273 269 267 279 286 287 286 278 286 286 285
303 303 304 305 305 305 302 299 300 294 287 289 292 288 289 290 288 284 288 290 290 289 278 277 275 276 283 279 279 279 280 278 273 270 270 278 286 289 288 277 278 286 286 286
303 303 304 304 304 305 301 297 300 294 287 289 292 293 291 291 289 286 288 287 286 282 278 279 277 278 280 280 283 282 280 277 273 272 266 272 288 287 282 283 286 287 286 286
302 302 303 303 304 304 302 295 299 297 291 290 294 294 295 295 294 289 285 287 286 284 282 282 281 279 280 280 277 285 280 282 280 279 279 286 287 286 287 287 286 286 286 286
302 303 303 303 304 305 302 296 297 295 289 291 290 290 295 298 297 297 288 287 292 290 291 286 283 283 283 279 281 282 285 288 282 282 285 285 286 287 288 287 287 287 287 286
302 302 303 303 304 305 303 297 298 294 290 284 286 297 295 300 299 298 297 295 296 294 291 285 282 282 286 282 283 282 285 287 284 282 285 286 286 287 287 287 287 287 287 286
302 302 303 304 304 304 300 297 297 296 291 284 286 293 296 298 299 298 298 296 291 287 284 282 283 285 284 282 282 281 286 285 283 281 286 284 284 287 288 287 286 286 285 284
302 303 304 303 303 301 295 287 296 297 295 287 283 290 292 294 296 294 294 294 291 288 285 282 286 289 284 279 279 286 288 289 288 284 287 287 287 288 288 285 285 285 284 284
302 303 302 301 300 296 290 288 294 298 295 287 283 284 290 293 292 290 289 290 287 287 284 284 284 284 283 278 279 286 287 288 287 288 287 284 286 284 285 285 285 286 284 284
301 301 301 301 301 298 292 294 300 299 292 290 283 283 286 291 285 284 288 285 286 285 282 285 283 284 281 278 285 286 287 287 287 287 287 286 284 284 284 284 283 282 282 282
301 301 300 295 292 289 291 299 299 297 291 283 283 282 281 289 284 285 286 285 281 282 281 281 284 280 277 283 285 285 286 285 285 285 285 284 283 283 283 283 282 281 281 282
301 298 291 285 290 299 298 292 287 287 287 287 282 285 282 286 284 283 283 282 280 275 280 283 280 279 285 287 287 286 286 286 285 282 281 281 281 281 282 282 282 282 282 282
293 286 285 290 297 292 288 283 283 284 283 284 284 285 283 288 282 281 284 280 280 275 280 279 279 278 282 285 284 285 285 285 284 284 283 283 282 280 280 280 281 281 281 280
292 292 294 293 290 285 282 281 282 282 280 283 283 284 285 285 287 283 282 281 280 278 282 278 277 281 284 283 284 284 284 284 283 283 282 281 281 281 280 280 280 280 281 280
295 290 286 285 283 275 277 273 278 278 282 284 285 282 285 284 284 280 279 275 275 281 272 276 279 283 283 283 282 282 283 282 281 281 281 280 280 281 281 280 281 280 280 281
286 283 278 279 277 278 280 281 282 283 286 286 283 281 282 280 281 280 277 280 279 272 270 275 279 281 282 282 282 281 279 280 280 280 280 280 280 279 281 278 278 276 279 280
283 282 275 279 282 283 283 285 284 286 287 284 282 281 281 278 278 279 278 274 273 276 272 275 279 281 281 280 280 279 278 274 278 279 277 273 274 276 274 276 278 279 275 274
284 283 281 283 282 280 283 284 283 283 282 282 282 279 278 278 278 276 273 275 271 272 278 279 281 280 280 280 280 280 280 279 278 278 278 277 270 269 273 272 273 273 273 273
283 281 283 283 281 280 280 285 282 284 282 276 278 272 277 279 276 276 277 270 270 277 278 278 279 279 280 280 280 280 280 279 279 279 277 275 276 271 272 273 277 276 279 275
Wind_Speed
34 33 31 29 26 25 2 6 4 2 3 5 1 4 6 4 3 3 3 4 5 6 5 4 3 4 3 4 5 5 2 7 4 2 3 3 2 3 5 7 5 1 3 8
37 34 32 30 30 21 6 8 3 2 4 5 3 3 4 3 3 4 4 3 4 2 5 6 3 4 5 4 4 7 6 1 4 7 6 5 1 2 4 4 3 5 6 7
37 36 34 31 29 15 7 6 5 3 4 1 7 5 5 3 1 2 4 5 5 6 5 6 5 3 3 2 4 7 7 4 6 9 7 5 2 4 2 5 4 4 6 3
37 36 34 33 25 12 9 3 5 7 8 5 4 7 7 5 4 1 2 4 5 7 5 4 4 3 2 5 2 4 5 4 3 2 2 1 3 5 8 6 5 7 3 7
37 34 32 32 19 12 6 7 6 1 3 12 6 7 7 8 3 4 2 8 6 5 8 9 10 9 4 5 2 3 3 2 2 2 2 4 3 5 8 4 3 7 1 6
39 34 31 32 18 9 5 2 2 6 2 11 8 7 6 8 7 5 4 11 6 5 3 5 6 3 6 8 8 4 4 6 3 2 2 1 8 11 11 6 4 6 7 7
38 33 31 33 25 8 4 3 4 5 2 11 13 12 8 8 4 8 3 6 7 1 15 10 9 11 10 9 6 4 6 5 2 3 3 2 7 2 8 7 2 7 4 3
39 36 34 30 26 11 4 2 4 5 4 6 11 9 8 8 5 5 4 4 1 12 6 7 6 7 7 5 3 3 4 6 3 5 3 6 4 4 7 8 2 2 8 4
39 36 32 27 25 12 5 2 1 5 9 7 3 8 6 6 5 4 4 5 6 6 5 5 5 5 5 0 3 5 5 6 5 2 4 7 5 4 5 5 3 4 6 6
39 35 29 30 23 12 5 2 1 6 6 2 4 5 8 5 5 5 4 4 3 4 3 4 4 2 4 6 7 5 2 3 5 2 1 8 7 4 1 5 6 5 5 5
37 34 27 26 17 13 4 1 4 5 4 2 1 2 4 4 3 7 7 6 4 4 6 4 4 3 6 4 5 6 6 6 3 4 3 8 2 1 5 5 4 6 5 4
37 33 27 22 17 10 4 5 2 3 7 4 0 2 1 2 3 9 4 4 5 5 6 1 4 2 2 6 4 3 4 7 6 8 6 2 3 1 5 3 7 4 6 4
34 32 27 23 22 10 4 4 4 5 5 4 6 5 7 6 2 3 8 3 5 3 3 5 3 3 4 5 5 3 2 4 3 4 2 4 5 5 6 4 6 5 5 6
34 31 27 23 17 9 4 4 0 5 6 6 3 6 5 10 5 5 4 10 6 6 4 4 3 3 2 3 3 4 4 6 6 3 4 6 4 4 5 5 5 4 5 4
31 28 24 20 15 13 8 5 2 2 8 6 3 3 9 11 9 13 11 10 7 3 4 4 1 1 4 2 3 1 1 3 5 5 10 5 4 4 3 4 2 3 7 7
30 29 26 25 25 9 5 7 5 4 3 7 4 3 6 7 11 15 11 6 5 4 4 3 1 1 3 4 2 2 3 2 2 5 5 8 8 6 4 7 6 6 6 5
29 26 22 18 16 8 6 6 4 3 3 7 4 3 4 4 5 4 5 5 4 4 3 3 2 2 4 2 3 4 6 10 11 12 12 7 3 5 6 7 5 5 4 3
29 28 28 27 22 12 6 5 5 3 7 5 5 1 2 4 3 3 4 3 3 6 2 2 2 2 2 2 7 9 8 10 9 8 8 8 7 6 5 3 1 3 4 2
31 28 22 12 9 4 2 3 3 4 6 5 3 5 4 2 2 2 4 2 4 2 3 1 3 1 1 4 12 10 10 5 9 9 9 9 9 6 6 6 8 6 4 2
31 16 8 4 1 1 3 9 7 7 4 4 4 2 3 4 2 3 3 2 2 2 2 2 3 1 3 7 7 7 9 9 9 10 6 6 6 6 6 6 5 5 5 5
7 5 4 1 3 6 5 4 4 2 3 2 3 3 6 0 4 4 1 3 1 3 3 4 2 2 2 8 11 10 12 13 12 10 7 7 7 5 4 4 5 5 6 6
10 12 6 3 5 4 6 2 1 4 6 2 4 4 4 2 3 4 2 3 2 3 3 4 3 3 9 11 12 10 10 12 11 9 8 6 6 5 4 3 5 5 6 7
7 8 5 4 2 4 9 8 3 4 5 5 6 5 5 3 4 4 3 4 3 4 3 3 2 9 9 10 10 10 8 9 8 7 6 6 4 5 3 5 6 6 7 9
6 5 6 5 5 5 5 5 6 3 7 13 5 4 4 2 3 3 5 2 4 2 3 5 4 11 9 7 6 9 6 7 7 6 5 4 5 5 6 6 5 5 7 9
5 4 4 4 2 3 3 3 5 5 9 7 5 5 4 2 4 0 4 3 3 5 5 4 8 10 10 8 7 7 6 4 5 3 2 4 5 5 6 7 6 7 6 7
4 5 4 2 5 2 3 7 9 2 4 4 4 5 4 2 4 3 4 7 6 4 4 7 9 9 8 8 7 6 5 4 2 2 2 3 4 4 6 7 6 7 6 8
4 3 3 3 6 4 3 6 4 1 4 3 4 5 2 3 3 3 2 5 3 7 9 6 10 9 9 7 6 5 4 3 3 3 3 3 4 3 3 6 7 8 9 7
Wind_Direction
158 159 158 160 162 170 137 96 117 330 57 79 102 163 194 220 196 162 157 120 115 152 140 113 110 163 206 146 134 117 100 122 119 289 320 355 86 155 139 118 251 244 143 275
157 159 158 166 167 180 119 114 118 356 87 140 218 250 242 234 188 161 156 116 116 148 129 107 105 94 349 97 97 152 175 51 72 352 346 346 204 77 103 113 76 197 135 264
158 159 163 168 166 183 96 107 111 352 43 28 149 158 190 204 231 154 112 120 92 94 62 34 142 116 9 43 86 92 89 109 148 188 211 145 157 186 195 116 117 186 222 256
159 162 166 164 166 142 93 72 197 180 183 215 185 152 180 163 157 134 104 68 138 141 118 82 120 104 124 40 47 69 97 120 112 211 257 186 152 167 173 178 193 159 231 203
159 163 167 158 146 121 87 129 139 106 208 157 161 148 192 167 168 145 158 129 134 121 151 169 188 140 175 178 78 89 23 166 141 82 242 263 275 217 187 227 234 272 211 271
159 163 161 162 155 134 103 183 88 113 162 156 136 198 170 189 138 15 143 138 105 95 146 104 95 96 112 140 131 121 101 127 102 240 7 294 306 216 182 185 198 158 189 231
157 159 162 163 176 109 120 182 113 101 174 163 184 179 198 166 175 133 84 95 98 101 124 93 53 49 72 75 53 110 119 97 86 157 43 360 246 242 187 142 202 197 124 96
159 163 168 171 174 112 108 143 119 120 112 168 173 170 159 98 61 74 92 24 264 156 59 71 49 352 26 5 70 91 114 118 82 128 189 291 287 173 147 166 247 178 135 123
159 164 170 170 166 110 89 63 116 104 114 218 95 159 159 144 114 47 68 30 63 68 78 78 130 181 175 159 77 55 57 73 111 112 137 215 244 285 116 102 261 161 128 150
156 157 158 162 155 109 97 117 147 93 108 288 155 170 168 123 103 108 114 128 75 56 81 89 142 199 173 155 165 171 101 32 146 119 197 285 247 274 147 113 235 136 141 142
159 158 150 157 140 112 97 142 49 108 106 22 245 3 140 99 117 134 183 81 335 49 71 119 205 134 210 117 157 169 159 148 192 87 87 274 9 24 180 162 66 123 136 141
156 160 154 162 158 138 124 82 33 87 83 142 220 167 133 247 185 128 11 151 146 172 94 156 113 122 115 149 207 135 196 184 177 172 211 311 337 147 87 111 124 139 131 145
150 148 156 166 173 158 143 111 153 67 94 57 44 349 323 12 345 187 115 304 148 120 155 149 155 133 134 159 218 131 238 155 135 115 20 48 51 63 75 93 115 141 155 161
151 156 158 159 161 157 143 111 119 85 109 97 309 338 8 320 358 57 93 121 86 103 78 92 120 128 186 181 158 143 196 143 125 77 86 87 34 72 120 119 128 152 182 185
149 149 151 147 129 147 119 104 41 111 117 139 153 325 356 10 55 64 66 91 95 84 64 66 148 133 104 30 66 183 304 178 165 206 171 126 142 159 129 105 63 27 96 70
146 145 138 146 161 151 76 49 352 360 91 97 81 274 360 351 41 54 51 49 63 77 114 148 119 30 100 100 162 61 27 59 189 147 115 111 121 91 62 93 92 88 93 107
138 129 123 118 98 70 76 159 179 329 70 87 91 47 337 338 30 30 31 31 52 80 114 64 124 42 75 100 146 134 94 96 93 102 99 70 83 112 104 109 107 99 112 139
127 114 98 90 91 93 32 349 23 95 86 73 105 80 29 14 36 53 357 51 29 13 115 45 86 31 60 87 130 123 111 100 84 75 68 102 116 92 81 92 85 55 32 40
117 99 74 49 38 63 203 268 42 57 102 110 99 134 164 32 67 80 34 55 54 301 75 53 75 330 83 159 144 144 146 124 126 90 86 82 81 77 53 55 50 54 19 360
114 98 61 52 324 221 54 13 30 19 349 49 92 131 115 103 95 50 76 23 100 82 268 66 74 99 342 130 119 110 113 119 121 100 81 72 64 61 46 40 24 11 349 321
87 78 84 204 348 49 40 48 62 358 15 49 126 124 125 270 114 128 212 158 133 119 221 127 160 146 93 92 93 93 93 90 82 93 95 86 96 81 46 18 7 342 323 315
116 102 107 69 58 54 77 164 137 196 189 147 120 131 125 133 113 107 202 110 101 196 138 101 161 135 117 116 109 99 97 97 94 94 95 86 71 49 29 351 327 309 299 294
82 62 64 96 126 112 175 183 192 146 173 163 150 129 125 80 60 67 105 107 188 105 56 200 139 132 127 118 109 95 93 93 92 80 75 64 38 10 331 305 300 304 296 292
80 119 132 180 171 214 190 177 151 167 132 136 119 88 111 134 85 137 106 140 117 90 171 207 139 141 132 116 107 108 99 90 88 85 59 23 357 323 314 309 295 282 299 308
95 98 123 174 134 59 107 129 99 90 118 118 98 68 87 64 104 171 108 108 198 203 204 154 145 133 127 122 117 106 98 86 69 45 350 313 321 317 293 301 309 306 303 305
71 52 86 77 87 21 63 100 114 61 111 87 60 102 92 118 129 117 192 159 204 203 145 137 131 126 125 122 108 110 110 93 60 2 318 288 305 289 281 301 300 303 300 293
54 40 16 78 70 81 86 118 100 164 71 96 102 84 138 106 97 146 194 188 191 137 126 124 131 128 123 118 113 104 95 59 19 337 310 280 275 298 325 321 307 306 308 288